PASV

Details ICAO PASV (SVW)
Name SPARREVOHN LRRS
Region USA (Alaska)
Timezone America/Anchorage (UTC-8.0)
Plans Departing 2
Arriving 2
Stats Elevation 1,583 ft / 482 m (AMSL)
Location 61.097369° -155.574228°
Runways 1
Magnetic Variation 13.998° E
Sunrise 2018-05-27 13:09:51 UTC / 2018-05-27 05:09:51 Local
Sunset 2018-05-28 07:32:02 UTC / 2018-05-27 23:32:02 Local
Advertisement - Login to hide

Runways

ID Width Length Bearing (true) Bearing (mag) Surface Threshold Offset Overrun Length
16 150 ft / 46 m 4,092 ft / 1,247 m 182.00° 168.00° Gravel 0 ft / 0 m 0 ft / 0 m
34 150 ft / 46 m 4,092 ft / 1,247 m 2.00° 348.00° Gravel 0 ft / 0 m 60 ft / 18 m

Map

Weather


0- 5 10 15 20 25 30 35+ Temperature / ° C

Clouds and Precipitation
Forecast for 2018-05-27 18:00 UTC. Updated 2 hours ago

Ground ~20,000 ft ~40,000 ft Winds

METAR

PASV 271855Z AUTO 25004KT 10SM -SHRA OVC005 03/03 A2980

TAF

Not found

Frequencies

Unicom 126.20 MHz CTAF/UNICOM
Warning: Do not use this data for real-world aviation or navigation. No guarantee of current accuracy is given.